Flag for Italy Weather past 2 weeks in Bologna, Italy

Now
90 °F

Passing clouds.


Feels Like: 87 °F
Forecast: 68 / 85 °F
Wind: 3 mph from Northwest

Location: Bologna / Borgo Panigale

Current Time: Sep 1, 2015 at 6:55:40 PM

Latest Report: Sep 1, 2015 at 6:20 PM


Visibility: N/A

Pressure: 29.83 "Hg

Humidity: 29%

Dew point: 54 °F

Location of BolognaLocation

Historic Weather in Bologna — Graph

°F

Bologna temperature yesterday

Maximum temperature yesterday: 95 °F (at 3:50 PM)
Minimum temperature yesterday: 70 °F (at 6:20 AM)
Average temperature yesterday: 83 °F

Past Weeks' High & Low Weather Summary

 TemperatureHumidityPressure
High95 °F (Aug 30, 3:20 PM)100% (Aug 24, 4:50 AM)30.18 "Hg (Aug 24, 4:50 AM)
Low59 °F (Aug 23, 5:50 AM)23% (Sep 1, 3:20 PM)29.71 "Hg (Aug 17, 5:20 PM)
Average76 °F59%30.00 "Hg
* Reported Aug 17 5:20 PM — Sep 1 5:20 PM, Bologna, Weather by CustomWeather, © 2015

Note: Actual official high and low records may vary slightly from our data, if they occured in-between our weather recording intervals... More about our weather records

Advertising

Bologna weather history for previous 24 hours

 ConditionsComfort  
Time TempWeatherWind HumidityBarometerVisibility
5:20 PM
Tue, Sep 1
90 °FPassing clouds.12 mph29%29.83 "HgN/A
4:50 PM91 °FPassing clouds.10 mph28%29.83 "HgN/A
4:20 PM93 °FPassing clouds.9 mph26%29.83 "HgN/A
3:50 PM93 °FPassing clouds.9 mph24%29.83 "HgN/A
3:20 PM95 °FPassing clouds.7 mph23%29.83 "HgN/A
2:50 PM93 °FPassing clouds.5 mph26%29.83 "HgN/A
2:20 PM93 °FPassing clouds.8 mph24%29.83 "HgN/A
1:50 PM93 °FPassing clouds.6 mph24%29.86 "HgN/A
1:20 PM93 °FSunny.5 mph26%29.86 "Hg10 mi
12:50 PM91 °FPassing clouds.6 mph24%29.86 "HgN/A
12:20 PM91 °FSunny.3 mph26%29.86 "Hg10 mi
11:50 AM90 °FSunny.5 mph29%29.89 "Hg10 mi
11:20 AM90 °FSunny.6 mph27%29.89 "Hg10 mi
10:50 AM88 °FPassing clouds.8 mph31%29.89 "HgN/A
10:20 AM84 °FSunny.8 mph35%29.89 "Hg10 mi
9:50 AM81 °FSunny.8 mph37%29.89 "Hg10 mi
9:20 AM77 °FSunny.9 mph42%29.89 "Hg10 mi
8:50 AM73 °FSunny.12 mph44%29.89 "Hg10 mi
8:20 AM72 °FSunny.7 mph47%29.92 "Hg10 mi
7:50 AM70 °FSunny.8 mph50%29.92 "Hg10 mi
7:20 AM68 °FClear.9 mph53%29.92 "Hg10 mi
6:50 AM66 °FPassing clouds.9 mph56%29.92 "HgN/A
6:20 AM66 °FClear.7 mph56%29.92 "Hg10 mi
5:20 AM68 °FClear.9 mph53%29.92 "Hg10 mi
4:50 AM68 °FPassing clouds.8 mph53%29.92 "HgN/A
4:20 AM68 °FPassing clouds.5 mph56%29.95 "HgN/A
3:50 AM70 °FClear.3 mph50%29.95 "Hg10 mi
3:20 AM70 °FPassing clouds.3 mph53%29.95 "HgN/A
2:50 AM72 °FClear.6 mph50%29.95 "Hg10 mi
2:20 AM72 °FClear.8 mph50%29.95 "Hg10 mi
1:50 AM72 °FPassing clouds.8 mph53%29.95 "HgN/A
1:20 AM73 °FClear.2 mph47%29.92 "Hg10 mi
12:50 AM75 °FClear.7 mph47%29.92 "Hg10 mi
12:20 AM75 °FClear.7 mph47%29.92 "Hg10 mi
11:20 PM
Mon, Aug 31
77 °FClear.6 mph44%29.95 "Hg10 mi
10:50 PM79 °FPassing clouds.6 mph42%29.92 "HgN/A
10:20 PM81 °FClear.8 mph39%29.92 "Hg10 mi
9:50 PM81 °FClear.5 mph39%29.95 "Hg10 mi
9:20 PM84 °FClear.No wind33%29.95 "Hg10 mi
8:50 PM86 °FSunny.6 mph31%29.92 "Hg10 mi
8:20 PM84 °FPassing clouds.5 mph35%29.92 "HgN/A
7:50 PM88 °FPassing clouds.3 mph33%29.92 "HgN/A
7:20 PM91 °FSunny.2 mph28%29.92 "Hg10 mi
6:50 PM93 °FSunny.2 mph28%29.92 "Hg10 mi
6:20 PM93 °FSunny.7 mph26%29.92 "Hg10 mi
Weather by CustomWeather, © 2015

See weather overviewHow to use our weather pages